Weather Roundup
Issued by NWS Chicago, IL

Home | Current Version | Previous Version | Graphics & Text | Print | Product List | Glossary On
Versions: 1 2 3 4 5 6 7 8 9 10 11 12 13 14 15 16 17 18 19 20 21 22 23 24 25 26 27 28 29 30 31 32 33 34 35 36 37 38 39 40 41 42 43 44 45 46 47 48 49 50
491
NZUS59 KLOT 301603
HRRLOT

CHICAGO AREA WEATHER ROUNDUP
NATIONAL WEATHER SERVICE CHICAGO/ROMEOVILLE IL
1100 AM CDT SAT APR 30 2016

NOTE: "FAIR" INDICATES FEW OR NO CLOUDS BELOW 12,000 FEET WITH NO
SIGNIFICANT WEATHER AND/OR OBSTRUCTIONS TO VISIBILITY.

* THESE STATIONS ARE NOT UNDER NWS QUALITY CONTROL. THEY ALSO MAY NOT
  REPORT WEATHER SUCH AS PRECIPITATION OR FOG.

ILZ005-006-012>014-019>023-301700-
NORTHEAST ILLINOIS

CITY           SKY/WX    TMP DP  RH WIND       PRES   REMARKS
OHARE          LGT RAIN  47  40  76 E13       30.03F
MIDWAY         LGT RAIN  48  41  76 E14       30.03S
AURORA         LGT RAIN  49  44  83 E16G26    29.99F
LANSING*       LGT RAIN  46  43  88 E10       30.02F
WAUKEGAN       CLOUDY    45  40  82 E13       30.06S
DUPAGE AIRPORT LGT RAIN  47  41  80 E15       30.00F
WHEELING       LGT RAIN  46  38  73 E8        30.06F
MORRIS*        LGT RAIN  48  45  90 E18       29.95F
$$

WIZ051-052-058>065-066-070>072-301700-
SOUTHEAST WISCONSIN

CITY           SKY/WX    TMP DP  RH WIND       PRES   REMARKS
MILWAUKEE      CLOUDY    45  39  79 E14       30.09F
KENOSHA*       CLOUDY    46  40  79 E15       30.07S
RACINE*        CLOUDY    45  38  76 E12       30.10S
BURLINGTON     CLOUDY    46  38  72 E16       30.07S
WAUKESHA       CLOUDY    45  36  70 E15       30.09F
$$

INZ001>003-010>013-019-020-301700-
NORTHWEST INDIANA

CITY           SKY/WX    TMP DP  RH WIND       PRES   REMARKS
GARY*          LGT RAIN  48  48 100 E12       30.04F
MICHIGAN CITY* NOT AVBL
RENSSELAER*    NOT AVBL
VALPARAISO     LGT RAIN  45  41  86 E16       30.03F FOG
$$

LMZ740>746-301700-
SOUTHERN LAKE MICHIGAN

STATION/POSITION TIME  SKY/WX   TEMP WIND        PRES    VSBY
                                AIR  DIR/SP/G
                 (UTC)          (F)  (DEG/KT/KT) (MB)    (MI)
HARRISON CRIB    1500            47   90/ 17/ 18   N/A
BURNHAM HARBOR   1600            45   70/ 10/ 12   N/A
CALUMET HARBOR   1500            47   60/  9/ 12 1016.7F
BURNS HARBOR     1504            48   90/ 11/ 18 1017.6F
MICHIGAN CITY    1500            48   80/ 12/ 14   N/A
$$

ABBREVIATIONS USED IN REMARKS
   TC - TEMPERATURE IN CELSIUS
  WCI - WIND CHILL INDEX
   HX - HEAT INDEX
  VSB - VISIBILITY
$$




USA.gov is the U.S. government's official web portal to all federal, state and local government web resources and services.